User: anonymous   Login
Location: Unspecified
(42.3650°N, 71.1030°W)
Time: 05:04:36
(UTC+00:00)
Language:

POLYITAN 1 - Orbit

View from above orbital plane
View from above orbital plane
View from above satellite
View from above satellite

Ground track
Ground track

The orbit data is extracted from the following two-line orbital elements,

1 40042U 14033AJ  24197.38394599  .00015367  00000-0  11374-2 0  9994
2 40042  98.0708 162.8350 0014038  44.9732 315.2627 15.03178521547076
Epoch (UTC): 15 July 2024 09:12:52
Eccentricity: 0.0014038
inclination: 98.0708°
perigee height: 547 km
apogee height: 567 km
right ascension of ascending node: 162.8350°
argument of perigee: 44.9732°
revolutions per day: 15.03178521
mean anomaly at epoch: 315.2627°
orbit number at epoch: 54707

The dashed part of the orbit path shows where the satellite is in the earth's shadow,  

DLR